owner,sensor,date,latitude,longitude,sea_surface_height_above_sea_level,qcFlag 
COMPS,ioos:station:USF.COMPS:EGK:1,2013-02-04T16:00:00Z,27.6010,-82.7510,-0.095,1111122 
COMPS,ioos:station:USF.COMPS:EGK:1,2013-02-04T16:06:00Z,27.6010,-82.7510,-0.091,1111122 
COMPS,ioos:station:USF.COMPS:EGK:1,2013-02-04T16:12:00Z,27.6010,-82.7510,-0.085,1111122 
COMPS,ioos:station:USF.COMPS:EGK:1,2013-02-04T16:18:00Z,27.6010,-82.7510,-0.092,1111122 
COMPS,ioos:station:USF.COMPS:EGK:1,2013-02-04T16:24:00Z,27.6010,-82.7510,-0.086,1111122 
COMPS,ioos:station:USF.COMPS:EGK:1,2013-02-04T16:30:00Z,27.6010,-82.7510,-0.082,1111122 
COMPS,ioos:station:USF.COMPS:EGK:1,2013-02-04T16:36:00Z,27.6010,-82.7510,-0.069,1111122 
COMPS,ioos:station:USF.COMPS:EGK:1,2013-02-04T16:42:00Z,27.6010,-82.7510,-0.068,1111122 
COMPS,ioos:station:USF.COMPS:EGK:1,2013-02-04T16:48:00Z,27.6010,-82.7510,-0.06,1111122 
COMPS,ioos:station:USF.COMPS:EGK:1,2013-02-04T16:54:00Z,27.6010,-82.7510,-0.057,1111122 
COMPS,ioos:station:USF.COMPS:EGK:1,2013-02-04T17:00:00Z,27.6010,-82.7510,-0.053,1111122 
COMPS,ioos:station:USF.COMPS:EGK:1,2013-02-04T17:06:00Z,27.6010,-82.7510,-0.042,1111122 
COMPS,ioos:station:USF.COMPS:EGK:1,2013-02-04T17:12:00Z,27.6010,-82.7510,-0.035,1111122 
COMPS,ioos:station:USF.COMPS:EGK:1,2013-02-04T17:18:00Z,27.6010,-82.7510,-0.036,1111122 
COMPS,ioos:station:USF.COMPS:EGK:1,2013-02-04T17:24:00Z,27.6010,-82.7510,-0.045,1111122 
COMPS,ioos:station:USF.COMPS:EGK:1,2013-02-04T17:30:00Z,27.6010,-82.7510,-0.036,1111122 
COMPS,ioos:station:USF.COMPS:EGK:1,2013-02-04T17:36:00Z,27.6010,-82.7510,-0.027,1111122 
COMPS,ioos:station:USF.COMPS:EGK:1,2013-02-04T17:42:00Z,27.6010,-82.7510,-0.01,1111122 
COMPS,ioos:station:USF.COMPS:EGK:1,2013-02-04T17:48:00Z,27.6010,-82.7510,-0.003,1111122 
COMPS,ioos:station:USF.COMPS:EGK:1,2013-02-04T17:54:00Z,27.6010,-82.7510,-0.012,1111122 
COMPS,ioos:station:USF.COMPS:EGK:1,2013-02-04T18:00:00Z,27.6010,-82.7510,-0.015,1111122 
COMPS,ioos:station:USF.COMPS:EGK:1,2013-02-04T18:06:00Z,27.6010,-82.7510,-0.02,1111122 
COMPS,ioos:station:USF.COMPS:EGK:1,2013-02-04T18:12:00Z,27.6010,-82.7510,-0.006,1111122 
COMPS,ioos:station:USF.COMPS:EGK:1,2013-02-04T18:18:00Z,27.6010,-82.7510,0.002,1111122 
COMPS,ioos:station:USF.COMPS:EGK:1,2013-02-04T18:24:00Z,27.6010,-82.7510,0.016,1111122 
COMPS,ioos:station:USF.COMPS:EGK:1,2013-02-04T18:30:00Z,27.6010,-82.7510,0.025,1111122 
COMPS,ioos:station:USF.COMPS:EGK:1,2013-02-04T18:36:00Z,27.6010,-82.7510,0.032,1111122 
COMPS,ioos:station:USF.COMPS:EGK:1,2013-02-04T18:42:00Z,27.6010,-82.7510,0.045,1111122 
COMPS,ioos:station:USF.COMPS:EGK:1,2013-02-04T18:48:00Z,27.6010,-82.7510,0.047,1111122 
COMPS,ioos:station:USF.COMPS:EGK:1,2013-02-04T18:54:00Z,27.6010,-82.7510,0.054,1111122 
COMPS,ioos:station:USF.COMPS:EGK:1,2013-02-04T19:00:00Z,27.6010,-82.7510,0.056,1111122 
COMPS,ioos:station:USF.COMPS:EGK:1,2013-02-04T19:06:00Z,27.6010,-82.7510,0.062,1111122 
COMPS,ioos:station:USF.COMPS:EGK:1,2013-02-04T19:12:00Z,27.6010,-82.7510,0.067,1111122 
COMPS,ioos:station:USF.COMPS:EGK:1,2013-02-04T19:18:00Z,27.6010,-82.7510,0.077,1111122 
COMPS,ioos:station:USF.COMPS:EGK:1,2013-02-04T19:24:00Z,27.6010,-82.7510,0.095,1111122 
COMPS,ioos:station:USF.COMPS:EGK:1,2013-02-04T19:30:00Z,27.6010,-82.7510,0.108,1111122 
COMPS,ioos:station:USF.COMPS:EGK:1,2013-02-04T19:36:00Z,27.6010,-82.7510,0.118,1111122 
COMPS,ioos:station:USF.COMPS:EGK:1,2013-02-04T19:42:00Z,27.6010,-82.7510,0.122,1111122 
COMPS,ioos:station:USF.COMPS:EGK:1,2013-02-04T19:48:00Z,27.6010,-82.7510,0.126,1111122 
COMPS,ioos:station:USF.COMPS:EGK:1,2013-02-04T19:54:00Z,27.6010,-82.7510,0.127,1111122 
COMPS,ioos:station:USF.COMPS:EGK:1,2013-02-04T20:00:00Z,27.6010,-82.7510,0.138,1111122 
COMPS,ioos:station:USF.COMPS:EGK:1,2013-02-04T20:06:00Z,27.6010,-82.7510,0.148,1111122 
COMPS,ioos:station:USF.COMPS:EGK:1,2013-02-04T20:12:00Z,27.6010,-82.7510,0.17,1111122 
COMPS,ioos:station:USF.COMPS:EGK:1,2013-02-04T20:18:00Z,27.6010,-82.7510,0.168,1111122 
COMPS,ioos:station:USF.COMPS:EGK:1,2013-02-04T20:24:00Z,27.6010,-82.7510,0.181,1111122 
COMPS,ioos:station:USF.COMPS:EGK:1,2013-02-04T20:30:00Z,27.6010,-82.7510,0.187,1111122 
COMPS,ioos:station:USF.COMPS:EGK:1,2013-02-04T20:36:00Z,27.6010,-82.7510,0.197,1111122 
COMPS,ioos:station:USF.COMPS:EGK:1,2013-02-04T20:42:00Z,27.6010,-82.7510,0.212,1111122 
COMPS,ioos:station:USF.COMPS:EGK:1,2013-02-04T20:48:00Z,27.6010,-82.7510,0.211,1111122 
COMPS,ioos:station:USF.COMPS:EGK:1,2013-02-04T20:54:00Z,27.6010,-82.7510,0.205,1111122 
COMPS,ioos:station:USF.COMPS:EGK:1,2013-02-04T21:00:00Z,27.6010,-82.7510,0.195,1111122 
COMPS,ioos:station:USF.COMPS:EGK:1,2013-02-04T21:06:00Z,27.6010,-82.7510,0.198,1111122 
COMPS,ioos:station:USF.COMPS:EGK:1,2013-02-04T21:12:00Z,27.6010,-82.7510,0.207,1111122 
COMPS,ioos:station:USF.COMPS:EGK:1,2013-02-04T21:18:00Z,27.6010,-82.7510,0.212,1111122 
COMPS,ioos:station:USF.COMPS:EGK:1,2013-02-04T21:24:00Z,27.6010,-82.7510,0.209,1111122 
COMPS,ioos:station:USF.COMPS:EGK:1,2013-02-04T21:30:00Z,27.6010,-82.7510,0.205,1111122 
COMPS,ioos:station:USF.COMPS:EGK:1,2013-02-04T21:36:00Z,27.6010,-82.7510,0.206,1111122 
COMPS,ioos:station:USF.COMPS:EGK:1,2013-02-04T21:42:00Z,27.6010,-82.7510,0.22,1111122 
COMPS,ioos:station:USF.COMPS:EGK:1,2013-02-04T21:48:00Z,27.6010,-82.7510,0.224,1111122 
COMPS,ioos:station:USF.COMPS:EGK:1,2013-02-04T21:54:00Z,27.6010,-82.7510,0.217,1111122 
COMPS,ioos:station:USF.COMPS:EGK:1,2013-02-04T22:00:00Z,27.6010,-82.7510,0.225,1111122 
COMPS,ioos:station:USF.COMPS:EGK:1,2013-02-04T22:06:00Z,27.6010,-82.7510,0.239,1111122 
COMPS,ioos:station:USF.COMPS:EGK:1,2013-02-04T22:12:00Z,27.6010,-82.7510,0.237,1111122 
COMPS,ioos:station:USF.COMPS:EGK:1,2013-02-04T22:18:00Z,27.6010,-82.7510,0.239,1111122 
COMPS,ioos:station:USF.COMPS:EGK:1,2013-02-04T22:24:00Z,27.6010,-82.7510,0.233,1111122 
COMPS,ioos:station:USF.COMPS:EGK:1,2013-02-04T22:30:00Z,27.6010,-82.7510,0.245,1111122 
COMPS,ioos:station:USF.COMPS:EGK:1,2013-02-04T22:36:00Z,27.6010,-82.7510,0.244,1111122 
COMPS,ioos:station:USF.COMPS:EGK:1,2013-02-04T22:42:00Z,27.6010,-82.7510,0.244,1111122 
COMPS,ioos:station:USF.COMPS:EGK:1,2013-02-04T22:48:00Z,27.6010,-82.7510,0.247,1111122 
COMPS,ioos:station:USF.COMPS:EGK:1,2013-02-04T22:54:00Z,27.6010,-82.7510,0.251,1111122 
COMPS,ioos:station:USF.COMPS:EGK:1,2013-02-04T23:00:00Z,27.6010,-82.7510,0.25,1111122 
COMPS,ioos:station:USF.COMPS:EGK:1,2013-02-04T23:06:00Z,27.6010,-82.7510,0.256,1111122 
COMPS,ioos:station:USF.COMPS:EGK:1,2013-02-04T23:12:00Z,27.6010,-82.7510,0.26,1111122 
COMPS,ioos:station:USF.COMPS:EGK:1,2013-02-04T23:18:00Z,27.6010,-82.7510,0.262,1111122 
COMPS,ioos:station:USF.COMPS:EGK:1,2013-02-04T23:24:00Z,27.6010,-82.7510,0.269,1111122 
COMPS,ioos:station:USF.COMPS:EGK:1,2013-02-04T23:30:00Z,27.6010,-82.7510,0.265,1111122 
COMPS,ioos:station:USF.COMPS:EGK:1,2013-02-04T23:36:00Z,27.6010,-82.7510,0.254,1111122 
COMPS,ioos:station:USF.COMPS:EGK:1,2013-02-04T23:42:00Z,27.6010,-82.7510,0.26,1111122 
COMPS,ioos:station:USF.COMPS:EGK:1,2013-02-04T23:48:00Z,27.6010,-82.7510,0.263,1111122 
COMPS,ioos:station:USF.COMPS:EGK:1,2013-02-04T23:54:00Z,27.6010,-82.7510,0.262,1111122 
COMPS,ioos:station:USF.COMPS:EGK:1,2013-02-05T00:00:00Z,27.6010,-82.7510,0.251,1111122 
COMPS,ioos:station:USF.COMPS:EGK:1,2013-02-05T00:06:00Z,27.6010,-82.7510,0.249,1111122 
COMPS,ioos:station:USF.COMPS:EGK:1,2013-02-05T00:12:00Z,27.6010,-82.7510,0.243,1111122 
COMPS,ioos:station:USF.COMPS:EGK:1,2013-02-05T00:18:00Z,27.6010,-82.7510,0.23,1111122 
COMPS,ioos:station:USF.COMPS:EGK:1,2013-02-05T00:24:00Z,27.6010,-82.7510,0.223,1111122 
COMPS,ioos:station:USF.COMPS:EGK:1,2013-02-05T00:30:00Z,27.6010,-82.7510,0.216,1111122 
COMPS,ioos:station:USF.COMPS:EGK:1,2013-02-05T00:36:00Z,27.6010,-82.7510,0.215,1111122 
COMPS,ioos:station:USF.COMPS:EGK:1,2013-02-05T00:42:00Z,27.6010,-82.7510,0.202,1111122 
COMPS,ioos:station:USF.COMPS:EGK:1,2013-02-05T00:48:00Z,27.6010,-82.7510,0.198,1111122 
COMPS,ioos:station:USF.COMPS:EGK:1,2013-02-05T00:54:00Z,27.6010,-82.7510,0.196,1111122 
COMPS,ioos:station:USF.COMPS:EGK:1,2013-02-05T01:00:00Z,27.6010,-82.7510,0.196,1111122 
COMPS,ioos:station:USF.COMPS:EGK:1,2013-02-05T01:06:00Z,27.6010,-82.7510,0.184,1111122 
COMPS,ioos:station:USF.COMPS:EGK:1,2013-02-05T01:12:00Z,27.6010,-82.7510,0.175,1111122 
COMPS,ioos:station:USF.COMPS:EGK:1,2013-02-05T01:18:00Z,27.6010,-82.7510,0.174,1111122 
COMPS,ioos:station:USF.COMPS:EGK:1,2013-02-05T01:24:00Z,27.6010,-82.7510,0.159,1111122 
COMPS,ioos:station:USF.COMPS:EGK:1,2013-02-05T01:30:00Z,27.6010,-82.7510,0.152,1111122 
COMPS,ioos:station:USF.COMPS:EGK:1,2013-02-05T01:36:00Z,27.6010,-82.7510,0.141,1111122 
COMPS,ioos:station:USF.COMPS:EGK:1,2013-02-05T01:42:00Z,27.6010,-82.7510,0.125,1111122 
COMPS,ioos:station:USF.COMPS:EGK:1,2013-02-05T01:48:00Z,27.6010,-82.7510,0.112,1111122 
COMPS,ioos:station:USF.COMPS:EGK:1,2013-02-05T01:54:00Z,27.6010,-82.7510,0.1,1111122 
COMPS,ioos:station:USF.COMPS:EGK:1,2013-02-05T02:00:00Z,27.6010,-82.7510,0.087,1111122 
COMPS,ioos:station:USF.COMPS:EGK:1,2013-02-05T02:06:00Z,27.6010,-82.7510,0.081,1111122 
COMPS,ioos:station:USF.COMPS:EGK:1,2013-02-05T02:12:00Z,27.6010,-82.7510,0.072,1111122 
COMPS,ioos:station:USF.COMPS:EGK:1,2013-02-05T02:18:00Z,27.6010,-82.7510,0.054,1111122 
COMPS,ioos:station:USF.COMPS:EGK:1,2013-02-05T02:24:00Z,27.6010,-82.7510,0.035,1111122 
COMPS,ioos:station:USF.COMPS:EGK:1,2013-02-05T02:30:00Z,27.6010,-82.7510,0.028,1111122 
COMPS,ioos:station:USF.COMPS:EGK:1,2013-02-05T02:36:00Z,27.6010,-82.7510,0.016,1111122 
COMPS,ioos:station:USF.COMPS:EGK:1,2013-02-05T02:42:00Z,27.6010,-82.7510,0.006,1111122 
COMPS,ioos:station:USF.COMPS:EGK:1,2013-02-05T02:48:00Z,27.6010,-82.7510,-0.011,1111122 
COMPS,ioos:station:USF.COMPS:EGK:1,2013-02-05T02:54:00Z,27.6010,-82.7510,-0.032,1111122 
COMPS,ioos:station:USF.COMPS:EGK:1,2013-02-05T03:00:00Z,27.6010,-82.7510,-0.044,1111122 
COMPS,ioos:station:USF.COMPS:EGK:1,2013-02-05T03:06:00Z,27.6010,-82.7510,-0.048,1111122 
COMPS,ioos:station:USF.COMPS:EGK:1,2013-02-05T03:12:00Z,27.6010,-82.7510,-0.055,1111122 
COMPS,ioos:station:USF.COMPS:EGK:1,2013-02-05T03:18:00Z,27.6010,-82.7510,-0.061,1111122 
COMPS,ioos:station:USF.COMPS:EGK:1,2013-02-05T03:24:00Z,27.6010,-82.7510,-0.071,1111122 
COMPS,ioos:station:USF.COMPS:EGK:1,2013-02-05T03:30:00Z,27.6010,-82.7510,-0.088,1111122 
COMPS,ioos:station:USF.COMPS:EGK:1,2013-02-05T03:36:00Z,27.6010,-82.7510,-0.102,1111122 
COMPS,ioos:station:USF.COMPS:EGK:1,2013-02-05T03:42:00Z,27.6010,-82.7510,-0.124,1111122 
COMPS,ioos:station:USF.COMPS:EGK:1,2013-02-05T03:48:00Z,27.6010,-82.7510,-0.135,1111122 
COMPS,ioos:station:USF.COMPS:EGK:1,2013-02-05T03:54:00Z,27.6010,-82.7510,-0.148,1111122 
COMPS,ioos:station:USF.COMPS:EGK:1,2013-02-05T04:00:00Z,27.6010,-82.7510,-0.162,1111122 
COMPS,ioos:station:USF.COMPS:EGK:1,2013-02-05T04:06:00Z,27.6010,-82.7510,-0.176,1111122 
COMPS,ioos:station:USF.COMPS:EGK:1,2013-02-05T04:12:00Z,27.6010,-82.7510,-0.187,1111122 
COMPS,ioos:station:USF.COMPS:EGK:1,2013-02-05T04:18:00Z,27.6010,-82.7510,-0.196,1111122 
COMPS,ioos:station:USF.COMPS:EGK:1,2013-02-05T04:24:00Z,27.6010,-82.7510,-0.199,1111122 
COMPS,ioos:station:USF.COMPS:EGK:1,2013-02-05T04:30:00Z,27.6010,-82.7510,-0.209,1111122 
COMPS,ioos:station:USF.COMPS:EGK:1,2013-02-05T04:36:00Z,27.6010,-82.7510,-0.224,1111122 
COMPS,ioos:station:USF.COMPS:EGK:1,2013-02-05T04:42:00Z,27.6010,-82.7510,-0.235,1111122 
COMPS,ioos:station:USF.COMPS:EGK:1,2013-02-05T04:48:00Z,27.6010,-82.7510,-0.247,1111122 
COMPS,ioos:station:USF.COMPS:EGK:1,2013-02-05T04:54:00Z,27.6010,-82.7510,-0.252,1111122 
COMPS,ioos:station:USF.COMPS:EGK:1,2013-02-05T05:00:00Z,27.6010,-82.7510,-0.256,1111122 
COMPS,ioos:station:USF.COMPS:EGK:1,2013-02-05T05:06:00Z,27.6010,-82.7510,-0.263,1111122 
COMPS,ioos:station:USF.COMPS:EGK:1,2013-02-05T05:12:00Z,27.6010,-82.7510,-0.276,1111122 
COMPS,ioos:station:USF.COMPS:EGK:1,2013-02-05T05:18:00Z,27.6010,-82.7510,-0.286,1111122 
COMPS,ioos:station:USF.COMPS:EGK:1,2013-02-05T05:24:00Z,27.6010,-82.7510,-0.289,1111122 
COMPS,ioos:station:USF.COMPS:EGK:1,2013-02-05T05:30:00Z,27.6010,-82.7510,-0.292,1111122 
COMPS,ioos:station:USF.COMPS:EGK:1,2013-02-05T05:36:00Z,27.6010,-82.7510,-0.298,1111122 
COMPS,ioos:station:USF.COMPS:EGK:1,2013-02-05T05:42:00Z,27.6010,-82.7510,-0.307,1111122 
COMPS,ioos:station:USF.COMPS:EGK:1,2013-02-05T05:48:00Z,27.6010,-82.7510,-0.312,1111122 
COMPS,ioos:station:USF.COMPS:EGK:1,2013-02-05T05:54:00Z,27.6010,-82.7510,-0.32,1111122 
COMPS,ioos:station:USF.COMPS:EGK:1,2013-02-05T06:00:00Z,27.6010,-82.7510,-0.323,1111122 
COMPS,ioos:station:USF.COMPS:EGK:1,2013-02-05T06:06:00Z,27.6010,-82.7510,-0.326,1111122 
COMPS,ioos:station:USF.COMPS:EGK:1,2013-02-05T06:12:00Z,27.6010,-82.7510,-0.33,1111122 
COMPS,ioos:station:USF.COMPS:EGK:1,2013-02-05T06:18:00Z,27.6010,-82.7510,-0.335,1111122 
COMPS,ioos:station:USF.COMPS:EGK:1,2013-02-05T06:24:00Z,27.6010,-82.7510,-0.336,1111122 
COMPS,ioos:station:USF.COMPS:EGK:1,2013-02-05T06:30:00Z,27.6010,-82.7510,-0.341,1111122 
COMPS,ioos:station:USF.COMPS:EGK:1,2013-02-05T06:36:00Z,27.6010,-82.7510,-0.339,1111122 
COMPS,ioos:station:USF.COMPS:EGK:1,2013-02-05T06:42:00Z,27.6010,-82.7510,-0.352,1111122 
COMPS,ioos:station:USF.COMPS:EGK:1,2013-02-05T06:48:00Z,27.6010,-82.7510,-0.351,1111122 
COMPS,ioos:station:USF.COMPS:EGK:1,2013-02-05T06:54:00Z,27.6010,-82.7510,-0.356,1111122 
COMPS,ioos:station:USF.COMPS:EGK:1,2013-02-05T07:00:00Z,27.6010,-82.7510,-0.355,1111122 
COMPS,ioos:station:USF.COMPS:EGK:1,2013-02-05T07:06:00Z,27.6010,-82.7510,-0.358,1111122 
COMPS,ioos:station:USF.COMPS:EGK:1,2013-02-05T07:12:00Z,27.6010,-82.7510,-0.359,1111122 
COMPS,ioos:station:USF.COMPS:EGK:1,2013-02-05T07:18:00Z,27.6010,-82.7510,-0.359,1111122 
COMPS,ioos:station:USF.COMPS:EGK:1,2013-02-05T07:24:00Z,27.6010,-82.7510,-0.357,1111122 
COMPS,ioos:station:USF.COMPS:EGK:1,2013-02-05T07:30:00Z,27.6010,-82.7510,-0.356,1111122 
COMPS,ioos:station:USF.COMPS:EGK:1,2013-02-05T07:36:00Z,27.6010,-82.7510,-0.351,1111122 
COMPS,ioos:station:USF.COMPS:EGK:1,2013-02-05T07:42:00Z,27.6010,-82.7510,-0.353,1111122 
COMPS,ioos:station:USF.COMPS:EGK:1,2013-02-05T07:48:00Z,27.6010,-82.7510,-0.353,1111122 
COMPS,ioos:station:USF.COMPS:EGK:1,2013-02-05T07:54:00Z,27.6010,-82.7510,-0.354,1111122 
COMPS,ioos:station:USF.COMPS:EGK:1,2013-02-05T08:00:00Z,27.6010,-82.7510,-0.355,1111122 
COMPS,ioos:station:USF.COMPS:EGK:1,2013-02-05T08:06:00Z,27.6010,-82.7510,-0.349,1111122 
COMPS,ioos:station:USF.COMPS:EGK:1,2013-02-05T08:12:00Z,27.6010,-82.7510,-0.343,1111122 
COMPS,ioos:station:USF.COMPS:EGK:1,2013-02-05T08:18:00Z,27.6010,-82.7510,-0.335,1111122 
COMPS,ioos:station:USF.COMPS:EGK:1,2013-02-05T08:24:00Z,27.6010,-82.7510,-0.329,1111122 
COMPS,ioos:station:USF.COMPS:EGK:1,2013-02-05T08:30:00Z,27.6010,-82.7510,-0.323,1111122 
COMPS,ioos:station:USF.COMPS:EGK:1,2013-02-05T08:36:00Z,27.6010,-82.7510,-0.315,1111122 
COMPS,ioos:station:USF.COMPS:EGK:1,2013-02-05T08:42:00Z,27.6010,-82.7510,-0.317,1111122 
COMPS,ioos:station:USF.COMPS:EGK:1,2013-02-05T08:48:00Z,27.6010,-82.7510,-0.317,1111122 
COMPS,ioos:station:USF.COMPS:EGK:1,2013-02-05T08:54:00Z,27.6010,-82.7510,-0.314,1111122 
COMPS,ioos:station:USF.COMPS:EGK:1,2013-02-05T09:00:00Z,27.6010,-82.7510,-0.307,1111122 
COMPS,ioos:station:USF.COMPS:EGK:1,2013-02-05T09:06:00Z,27.6010,-82.7510,-0.304,1111122 
COMPS,ioos:station:USF.COMPS:EGK:1,2013-02-05T09:12:00Z,27.6010,-82.7510,-0.294,1111122 
COMPS,ioos:station:USF.COMPS:EGK:1,2013-02-05T09:18:00Z,27.6010,-82.7510,-0.29,1111122 
COMPS,ioos:station:USF.COMPS:EGK:1,2013-02-05T09:24:00Z,27.6010,-82.7510,-0.276,1111122 
COMPS,ioos:station:USF.COMPS:EGK:1,2013-02-05T09:30:00Z,27.6010,-82.7510,-0.269,1111122 
COMPS,ioos:station:USF.COMPS:EGK:1,2013-02-05T09:36:00Z,27.6010,-82.7510,-0.259,1111122 
COMPS,ioos:station:USF.COMPS:EGK:1,2013-02-05T09:42:00Z,27.6010,-82.7510,-0.253,1111122 
COMPS,ioos:station:USF.COMPS:EGK:1,2013-02-05T09:48:00Z,27.6010,-82.7510,-0.246,1111122 
COMPS,ioos:station:USF.COMPS:EGK:1,2013-02-05T09:54:00Z,27.6010,-82.7510,-0.254,1111122 
COMPS,ioos:station:USF.COMPS:EGK:1,2013-02-05T10:00:00Z,27.6010,-82.7510,-0.231,1111122 
COMPS,ioos:station:USF.COMPS:EGK:1,2013-02-05T10:06:00Z,27.6010,-82.7510,-0.22,1111122 
COMPS,ioos:station:USF.COMPS:EGK:1,2013-02-05T10:12:00Z,27.6010,-82.7510,-0.206,1111122 
COMPS,ioos:station:USF.COMPS:EGK:1,2013-02-05T10:18:00Z,27.6010,-82.7510,-0.196,1111122 
COMPS,ioos:station:USF.COMPS:EGK:1,2013-02-05T10:24:00Z,27.6010,-82.7510,-0.189,1111122 
COMPS,ioos:station:USF.COMPS:EGK:1,2013-02-05T10:30:00Z,27.6010,-82.7510,-0.181,1111122 
COMPS,ioos:station:USF.COMPS:EGK:1,2013-02-05T10:36:00Z,27.6010,-82.7510,-0.17,1111122 
COMPS,ioos:station:USF.COMPS:EGK:1,2013-02-05T10:42:00Z,27.6010,-82.7510,-0.166,1111122 
COMPS,ioos:station:USF.COMPS:EGK:1,2013-02-05T10:48:00Z,27.6010,-82.7510,-0.162,1111122 
COMPS,ioos:station:USF.COMPS:EGK:1,2013-02-05T10:54:00Z,27.6010,-82.7510,-0.161,1111122 
COMPS,ioos:station:USF.COMPS:EGK:1,2013-02-05T11:00:00Z,27.6010,-82.7510,-0.159,1111122 
COMPS,ioos:station:USF.COMPS:EGK:1,2013-02-05T11:06:00Z,27.6010,-82.7510,-0.158,1111122 
COMPS,ioos:station:USF.COMPS:EGK:1,2013-02-05T11:12:00Z,27.6010,-82.7510,-0.147,1111122 
COMPS,ioos:station:USF.COMPS:EGK:1,2013-02-05T11:18:00Z,27.6010,-82.7510,-0.142,1111122 
COMPS,ioos:station:USF.COMPS:EGK:1,2013-02-05T11:24:00Z,27.6010,-82.7510,-0.14,1111122 
COMPS,ioos:station:USF.COMPS:EGK:1,2013-02-05T11:30:00Z,27.6010,-82.7510,-0.137,1111122 
COMPS,ioos:station:USF.COMPS:EGK:1,2013-02-05T11:36:00Z,27.6010,-82.7510,-0.136,1111122 
COMPS,ioos:station:USF.COMPS:EGK:1,2013-02-05T11:42:00Z,27.6010,-82.7510,-0.131,1111122 
COMPS,ioos:station:USF.COMPS:EGK:1,2013-02-05T11:48:00Z,27.6010,-82.7510,-0.124,1111122 
COMPS,ioos:station:USF.COMPS:EGK:1,2013-02-05T11:54:00Z,27.6010,-82.7510,-0.116,1111122 
COMPS,ioos:station:USF.COMPS:EGK:1,2013-02-05T12:00:00Z,27.6010,-82.7510,-0.112,1111122 
COMPS,ioos:station:USF.COMPS:EGK:1,2013-02-05T12:06:00Z,27.6010,-82.7510,-0.106,1111122 
COMPS,ioos:station:USF.COMPS:EGK:1,2013-02-05T12:12:00Z,27.6010,-82.7510,-0.105,1111122 
COMPS,ioos:station:USF.COMPS:EGK:1,2013-02-05T12:18:00Z,27.6010,-82.7510,-0.094,1111122 
COMPS,ioos:station:USF.COMPS:EGK:1,2013-02-05T12:24:00Z,27.6010,-82.7510,-0.089,1111122 
COMPS,ioos:station:USF.COMPS:EGK:1,2013-02-05T12:30:00Z,27.6010,-82.7510,-0.09,1111122 
COMPS,ioos:station:USF.COMPS:EGK:1,2013-02-05T12:36:00Z,27.6010,-82.7510,-0.083,1111122 
COMPS,ioos:station:USF.COMPS:EGK:1,2013-02-05T12:42:00Z,27.6010,-82.7510,-0.074,1111122 
COMPS,ioos:station:USF.COMPS:EGK:1,2013-02-05T12:48:00Z,27.6010,-82.7510,-0.07,1111122 
COMPS,ioos:station:USF.COMPS:EGK:1,2013-02-05T12:54:00Z,27.6010,-82.7510,-0.073,1111122 
COMPS,ioos:station:USF.COMPS:EGK:1,2013-02-05T13:00:00Z,27.6010,-82.7510,-0.068,1111122 
COMPS,ioos:station:USF.COMPS:EGK:1,2013-02-05T13:06:00Z,27.6010,-82.7510,-0.067,1111122 
COMPS,ioos:station:USF.COMPS:EGK:1,2013-02-05T13:12:00Z,27.6010,-82.7510,-0.065,1111122 
COMPS,ioos:station:USF.COMPS:EGK:1,2013-02-05T13:18:00Z,27.6010,-82.7510,-0.072,1111122 
COMPS,ioos:station:USF.COMPS:EGK:1,2013-02-05T13:24:00Z,27.6010,-82.7510,-0.065,1111122 
COMPS,ioos:station:USF.COMPS:EGK:1,2013-02-05T13:30:00Z,27.6010,-82.7510,-0.061,1111122 
COMPS,ioos:station:USF.COMPS:EGK:1,2013-02-05T13:36:00Z,27.6010,-82.7510,-0.041,1111122 
COMPS,ioos:station:USF.COMPS:EGK:1,2013-02-05T13:42:00Z,27.6010,-82.7510,-0.032,1111122 
COMPS,ioos:station:USF.COMPS:EGK:1,2013-02-05T13:48:00Z,27.6010,-82.7510,-0.024,1111122 
COMPS,ioos:station:USF.COMPS:EGK:1,2013-02-05T13:54:00Z,27.6010,-82.7510,-0.025,1111122 
COMPS,ioos:station:USF.COMPS:EGK:1,2013-02-05T14:00:00Z,27.6010,-82.7510,-0.03,1111122 
COMPS,ioos:station:USF.COMPS:EGK:1,2013-02-05T14:06:00Z,27.6010,-82.7510,-0.029,1111122 
COMPS,ioos:station:USF.COMPS:EGK:1,2013-02-05T14:12:00Z,27.6010,-82.7510,-0.034,1111122 
COMPS,ioos:station:USF.COMPS:EGK:1,2013-02-05T14:18:00Z,27.6010,-82.7510,-0.041,1111122 
COMPS,ioos:station:USF.COMPS:EGK:1,2013-02-05T14:24:00Z,27.6010,-82.7510,-0.041,1111122 
COMPS,ioos:station:USF.COMPS:EGK:1,2013-02-05T14:30:00Z,27.6010,-82.7510,-0.036,1111122 
COMPS,ioos:station:USF.COMPS:EGK:1,2013-02-05T14:36:00Z,27.6010,-82.7510,-0.028,1111122 
COMPS,ioos:station:USF.COMPS:EGK:1,2013-02-05T14:42:00Z,27.6010,-82.7510,-0.02,1111122 
COMPS,ioos:station:USF.COMPS:EGK:1,2013-02-05T14:48:00Z,27.6010,-82.7510,-0.011,1111122 
COMPS,ioos:station:USF.COMPS:EGK:1,2013-02-05T14:54:00Z,27.6010,-82.7510,-0.015,1111122 
COMPS,ioos:station:USF.COMPS:EGK:1,2013-02-05T15:00:00Z,27.6010,-82.7510,-0.015,1111122 
COMPS,ioos:station:USF.COMPS:EGK:1,2013-02-05T15:06:00Z,27.6010,-82.7510,-0.003,1111122 
COMPS,ioos:station:USF.COMPS:EGK:1,2013-02-05T15:12:00Z,27.6010,-82.7510,-0.009,1111122 
COMPS,ioos:station:USF.COMPS:EGK:1,2013-02-05T15:18:00Z,27.6010,-82.7510,-0.006,1111122 
COMPS,ioos:station:USF.COMPS:EGK:1,2013-02-05T15:24:00Z,27.6010,-82.7510,-0.003,1111122 
COMPS,ioos:station:USF.COMPS:EGK:1,2013-02-05T15:30:00Z,27.6010,-82.7510,-0.005,1111122 
COMPS,ioos:station:USF.COMPS:EGK:1,2013-02-05T15:36:00Z,27.6010,-82.7510,-0.001,1111122 
COMPS,ioos:station:USF.COMPS:EGK:1,2013-02-05T15:42:00Z,27.6010,-82.7510,-0.003,1111122 
COMPS,ioos:station:USF.COMPS:EGK:1,2013-02-05T15:48:00Z,27.6010,-82.7510,0.003,1111122 
COMPS,ioos:station:USF.COMPS:EGK:1,2013-02-05T15:54:00Z,27.6010,-82.7510,-0.012,1111122 
COMPS,ioos:station:USF.COMPS:EGK:1,2013-02-05T16:00:00Z,27.6010,-82.7510,0.004,1111122 
COMPS,ioos:station:USF.COMPS:EGK:1,2013-02-05T16:06:00Z,27.6010,-82.7510,0.008,1111122 
COMPS,ioos:station:USF.COMPS:EGK:1,2013-02-05T16:12:00Z,27.6010,-82.7510,0.019,1111122 
COMPS,ioos:station:USF.COMPS:EGK:1,2013-02-05T16:18:00Z,27.6010,-82.7510,0.021,1111122 
COMPS,ioos:station:USF.COMPS:EGK:1,2013-02-05T16:24:00Z,27.6010,-82.7510,0.017,1111122 
COMPS,ioos:station:USF.COMPS:EGK:1,2013-02-05T16:30:00Z,27.6010,-82.7510,0.014,1111122 
COMPS,ioos:station:USF.COMPS:EGK:1,2013-02-05T16:36:00Z,27.6010,-82.7510,0.012,1111122 
COMPS,ioos:station:USF.COMPS:EGK:1,2013-02-05T16:42:00Z,27.6010,-82.7510,0.011,1111122 
COMPS,ioos:station:USF.COMPS:EGK:1,2013-02-05T16:48:00Z,27.6010,-82.7510,0.018,1111122 
COMPS,ioos:station:USF.COMPS:EGK:1,2013-02-05T16:54:00Z,27.6010,-82.7510,0.016,1111122 
COMPS,ioos:station:USF.COMPS:EGK:1,2013-02-05T17:00:00Z,27.6010,-82.7510,0.018,1111122 
COMPS,ioos:station:USF.COMPS:EGK:1,2013-02-05T17:06:00Z,27.6010,-82.7510,0.024,1111122 
COMPS,ioos:station:USF.COMPS:EGK:1,2013-02-05T17:12:00Z,27.6010,-82.7510,0.024,1111122 
COMPS,ioos:station:USF.COMPS:EGK:1,2013-02-05T17:18:00Z,27.6010,-82.7510,0.028,1111122 
COMPS,ioos:station:USF.COMPS:EGK:1,2013-02-05T17:24:00Z,27.6010,-82.7510,0.026,1111122 
COMPS,ioos:station:USF.COMPS:EGK:1,2013-02-05T17:30:00Z,27.6010,-82.7510,0.031,1111122 
COMPS,ioos:station:USF.COMPS:EGK:1,2013-02-05T17:36:00Z,27.6010,-82.7510,0.029,1111122 
COMPS,ioos:station:USF.COMPS:EGK:1,2013-02-05T17:42:00Z,27.6010,-82.7510,0.033,1111122 
COMPS,ioos:station:USF.COMPS:EGK:1,2013-02-05T17:48:00Z,27.6010,-82.7510,0.037,1111122 
COMPS,ioos:station:USF.COMPS:EGK:1,2013-02-05T17:54:00Z,27.6010,-82.7510,0.04,1111122 
COMPS,ioos:station:USF.COMPS:EGK:1,2013-02-05T18:00:00Z,27.6010,-82.7510,0.045,1111122 
COMPS,ioos:station:USF.COMPS:EGK:1,2013-02-05T18:06:00Z,27.6010,-82.7510,0.047,1111122 
COMPS,ioos:station:USF.COMPS:EGK:1,2013-02-05T18:12:00Z,27.6010,-82.7510,0.04,1111122 
COMPS,ioos:station:USF.COMPS:EGK:1,2013-02-05T18:18:00Z,27.6010,-82.7510,0.037,1111122 
COMPS,ioos:station:USF.COMPS:EGK:1,2013-02-05T18:24:00Z,27.6010,-82.7510,0.045,1111122 
COMPS,ioos:station:USF.COMPS:EGK:1,2013-02-05T18:30:00Z,27.6010,-82.7510,0.053,1111122 
COMPS,ioos:station:USF.COMPS:EGK:1,2013-02-05T18:36:00Z,27.6010,-82.7510,0.062,1111122 
COMPS,ioos:station:USF.COMPS:EGK:1,2013-02-05T18:42:00Z,27.6010,-82.7510,0.064,1111122 
COMPS,ioos:station:USF.COMPS:EGK:1,2013-02-05T18:48:00Z,27.6010,-82.7510,0.064,1111122 
COMPS,ioos:station:USF.COMPS:EGK:1,2013-02-05T18:54:00Z,27.6010,-82.7510,0.068,1111122 